Location: Bright Sky Observatory
(40.7821°N, 74.2425°W)
Time: 09:30:33
(UTC-05:00)

Daily predictions for brighter satellites

Satellite Brightness Start Highest point End
(mag) Time Altitude Azimuth Time Altitude Azimuth Time Altitude Azimuth
Cosmos 1048 Rocket 4.3 16:48:03 10° NNW 16:53:24 80° WSW 16:58:44 10° SSE
Okean 1 Rocket 3.7 16:50:42 10° NNW 16:54:59 60° W 16:59:15 10° S
Cosmos 1633 3.5 16:54:19 10° NNW 16:57:50 53° W 17:01:18 10° S
Cosmos 1544 Rocket 4.1 16:55:30 10° N 16:59:39 37° ENE 17:03:48 10° SE
COSMO-SKYMED 1 4.2 16:58:48 10° NE 17:01:30 16° E 17:04:10 10° SE
Cosmos 1975 Rocket 3.0 16:58:46 10° S 17:03:04 85° E 17:07:25 10° N
Cosmos 2263 Rocket 4.1 17:01:21 10° WSW 17:05:54 25° NW 17:10:30 10° N
PAYLOAD A 3.9 17:05:56 10° SSE 17:10:43 89° ENE 17:15:44 10° NNW
Cosmos 1536 Rocket 4.1 17:15:34 10° SSE 17:19:42 39° E 17:23:52 10° NNE
SJ-7 4.5 17:17:45 10° SSE 17:21:56 64° ENE 17:26:09 10° N
USA 234 3.5 17:17:08 10° NE 17:23:37 66° NW 17:30:04 10° WSW
Tiangong 1 3.0 17:21:27 10° SSW 17:23:38 18° SSE 17:25:29 12° ESE
SPOT 3 Rocket 3.5 17:19:36 10° SSE 17:24:47 83° ENE 17:29:59 10° NNW
Okean 1 3.8 17:23:03 10° SSE 17:26:49 39° E 17:30:37 10° NNE
YAOGAN 1 2.5 17:23:30 10° SSE 17:27:49 79° ENE 17:32:10 10° N
Meteor 1-18 Rocket 4.3 17:22:19 10° S 17:27:50 62° E 17:33:30 10° NNE
Cosmos 1844 Rocket 3.1 17:25:21 10° SSW 17:30:54 65° WNW 17:36:31 10° NNE
Cosmos 1812 2.7 17:27:20 10° S 17:31:09 64° E 17:34:59 10° NNE
CZ-4 R/B 4.4 17:28:20 10° SSE 17:32:26 66° ENE 17:36:34 10° N
BREEZE M DEB (TANK) 3.9 17:22:25 10° SW 17:32:54 46° SSE 17:35:33 18° E
COSMOS 2487 3.6 17:33:38 10° N 17:36:37 24° ENE 17:38:37 15° ESE
EP 2 4.1 17:34:24 10° SSW 17:36:59 77° ESE 17:38:30 23° NE
AQUARIUS 4.4 17:32:33 10° S 17:37:02 76° WSW 17:41:33 10° NNW
Cosmos 921 Rocket 4.3 17:34:07 10° SE 17:37:06 19° E 17:37:42 18° E
USA 32 4.2 17:32:32 10° S 17:37:45 77° W 17:42:59 10° N
NOSS 3-3 (A) 4.1 17:32:08 10° SSW 17:38:11 64° ESE 17:44:01 13° NE
NOSS 3-3 (C) 4.1 17:32:14 10° SSW 17:38:17 63° ESE 17:44:05 13° NE
FALCON 9 R/B 4.4 17:08:38 10° WSW 17:39:28 58° S 17:46:24 14° E
SL-8 Rocket 4.3 17:33:53 10° NNW 17:40:01 73° W 17:46:08 10° S
ISS -1.7 17:37:22 10° W 17:40:15 27° NNW 17:42:12 16° NNE
Cosmos 1346 Rocket 3.2 17:39:11 10° SSE 17:42:48 38° E 17:45:20 17° NE
IDEFIX/ARIANE 42P 2.9 17:40:11 10° S 17:45:21 68° WSW 17:50:32 10° NNW
CORIOLIS 4.4 17:40:22 10° S 17:45:46 76° WSW 17:51:12 10° NNW
ASTRO F (AKARI) 4.1 17:43:42 10° NNE 17:46:52 89° W 17:49:59 10° SSW
ATLAS 2AS CENTAUR R/B 3.1 17:39:13 10° NW 17:47:20 84° WSW 17:54:51 10° SSE
Cosmos 494 Rocket 4.0 17:42:07 10° NNW 17:47:24 89° E 17:52:40 10° SSE
Cosmos 1844 4.1 17:42:08 10° SW 17:47:39 64° WNW 17:53:12 10° NNE
Cosmos 1455 Rocket 3.2 17:44:44 10° N 17:49:09 79° W 17:53:34 10° S
SKYMED 2 3.7 17:45:36 10° NNE 17:49:52 53° E 17:54:06 10° S
Cosmos 2297 4.2 17:44:47 10° S 17:49:56 38° ESE 17:53:05 21° NE
Cosmos 2366 rocket 4.1 17:44:55 10° N 17:51:18 82° W 17:57:35 10° S
Okean 1-7 Rocket 4.3 17:49:03 10° SSE 17:53:05 33° E 17:54:42 25° NE
CZ-3B DEB 2.5 17:51:29 10° WSW 17:55:13 66° NW 18:02:18 17° NE
Cosmos 2218 Rocket 4.4 17:49:41 10° NNW 17:55:55 66° W 18:02:01 10° S
MSX 3.9 17:52:16 10° S 17:58:01 80° WSW 18:03:49 10° NNW
CZ-4 R/B 3.7 17:58:50 10° SSW 18:02:26 28° W 18:06:01 10° NW
Cosmos 1809 Rocket 4.3 17:56:36 10° N 18:02:46 70° E 18:08:50 10° SSE
SMAP 4.5 17:58:56 10° SSW 18:03:18 40° W 18:07:42 10° NNW
Abrixas 4.1 18:01:36 10° NW 18:03:36 23° N 18:03:36 23° N
Cosmos 2278 Rocket 2.3 17:58:28 10° SSW 18:04:07 78° WNW 18:09:20 12° NNE
SL-24 DEB 4.3 18:00:01 10° N 18:04:46 81° W 18:09:27 10° S
Cosmos 1238 Rocket 4.2 18:04:44 10° SW 18:07:20 28° WNW 18:10:00 10° NNW
OTV 4 3.6 18:07:29 10° SW 18:08:21 11° SSW 18:09:13 10° S
BREEZE-M R/B 4.2 17:58:40 10° WSW 18:09:34 79° NNW 18:12:19 31° NE
CZ-2C R/B 4.0 18:05:01 10° SSW 18:09:35 37° W 18:14:19 10° NNW
Timation 2 Rocket 4.2 18:03:43 10° NNW 18:10:27 59° ENE 18:17:14 10° SE
Cosmos 1975 3.2 18:07:27 10° NNW 18:11:30 65° W 18:15:29 10° S
Meteor 1-19 Rocket 4.3 18:08:37 10° S 18:14:13 54° E 18:18:28 18° NNE
Genesis I 3.0 18:18:36 10° NNW 18:22:33 85° ENE 18:23:19 56° SE
NOAA 12 4.0 18:20:03 10° SSE 18:25:16 68° ENE 18:30:31 10° N
Cosmos 1821 Rocket 3.9 18:20:08 10° N 18:26:09 59° E 18:32:09 10° SSE
OE (NEXTSAT) 4.4 18:22:53 10° WSW 18:26:20 80° W 18:26:20 80° W
Cosmos 1484 Rocket 3.9 18:25:03 10° S 18:28:39 42° W 18:32:13 10° NNW
TIMED 4.4 18:24:47 10° SSW 18:29:09 86° ESE 18:30:00 58° NNE
SL-8 R/B 4.0 18:25:09 10° WSW 18:29:52 59° NNW 18:30:50 48° NNE
Cosmos 2082 Rocket 2.1 18:24:15 10° NNW 18:29:54 68° ENE 18:33:42 21° SE
Meteor 1-13 Rocket 4.2 18:25:51 10° S 18:31:31 87° W 18:37:11 11° N
Cosmos 1833 Rocket 2.6 18:25:57 10° NNW 18:31:32 59° ENE 18:33:05 44° ESE
METEOR-M 4.0 18:28:06 10° SSE 18:33:23 68° ENE 18:38:42 10° N
NOSS 2-1 (D) 3.8 18:30:36 10° SSW 18:33:30 47° S 18:33:30 47° S
NOSS 2-1 (C) 3.9 18:31:17 10° SSW 18:34:09 45° S 18:34:09 45° S
COSMO-SKYMED 1 3.6 18:34:05 12° N 18:37:51 44° WNW 18:41:58 10° SW
Meteor 1-23 Rocket 4.2 18:37:57 10° S 18:43:21 59° ESE 18:43:21 59° ESE
Meteor 1-28 Rocket 3.8 18:45:29 55° WNW 18:45:34 55° WNW 18:49:17 10° SSW
Nadezhda 3 Rocket 4.5 18:42:29 10° SSW 18:48:35 59° W 18:54:47 10° N
NOSS 2-1 (E) 4.5 18:49:46 10° SSW 18:52:08 37° SSW 18:52:08 37° SSW
Timation 1 Rocket 4.3 18:47:53 10° SSW 18:53:51 80° WNW 18:55:27 51° NNE
GEOS 3 Rocket 4.1 18:53:30 24° SSE 18:56:32 58° WSW 19:01:35 10° NW
Meteor 2-4 Rocket 3.5 18:53:02 10° S 18:58:26 88° W 18:58:30 87° NW
Tiangong 1 4.1 18:56:31 10° WSW 18:57:11 15° WSW 18:57:11 15° WSW
Cosmos 2056 Rocket 4.4 18:57:29 10° S 19:00:49 38° S 19:00:49 38° S
Cosmos 1025 Rocket 4.4 19:04:50 10° SSW 19:07:27 34° SW 19:07:27 34° SW
ATLAS 3B CENTAUR R/B 4.0 18:59:38 10° WSW 19:13:33 36° SSW 19:15:58 30° SSE
BREEZE M DEB (TANK) 3.9 19:17:09 10° NW 19:21:45 76° NNE 19:21:54 76° NE
NOSS 3-4 (A) 3.9 19:16:01 10° NNW 19:21:59 65° N 19:21:59 65° N
NOSS 3-4 (C) 3.9 19:16:07 10° NNW 19:22:03 63° N 19:22:03 63° N
